Weather in Lazo

Russia / Kamchatka Krai     55°32′20″N   159°45′26″E
temp.,
°C
wind,
m/s
gust,
m/s
humid.,
%
clouds,
%
prec.,
mm/h
press.,
hPa
HPBL,
m
24 july, sat
sat2400:00+19s117036 0.0 100916
03:00+18w127599 0.0 101062
06:00+16w138298 0.0 1011145
09:00+17wsw227396 0.0 1011508
12:00+20w1262100 0.0 1011922
15:00+21n116199 0.0 10101143
18:00+19nne227576 0.1 1010536
21:00+17n128971 0.4 101177
25 july, sun
sun2500:00+15nnw119228 0.4 101227
03:00+14nw019524 0.0 101215
06:00+13sw119549 0.0 101217
09:00+18wsw117953 0.0 1013421
12:00+23wnw135362 0.0 10111487
15:00+26wsw234384 0.0 10092032
18:00+24s125377 0.1 1008139
21:00+21sse226198 0.0 100939
26 july, mon
mon2600:00+20ssw116894 0.0 100914
03:00+16sw11868 0.0 101014
06:00+16sw118491 0.0 101065
09:00+21sw136426 0.0 1010648
12:00+25wsw2346100 0.0 10081289
15:00+28sw333455 0.0 10061589
18:00+28ssw34355 0.0 10051569
21:00+23s355782 0.0 100475
27 july, tue
tue2700:00+21s3458100 0.0 100380
03:00+22s3865100 0.0 1001245
06:00+18s3795100 1.8 1000278
09:00+19s2894100 1.5 997343
12:00+26sw9115213 2.3 9961680
15:00+26sw8103719 0.0 9951901
18:00+23sw7742100 0.0 9971271
21:00+18ssw4762100 0.0 999408
28 july, wed
wed2800:00+14se127620 0.0 100132
03:00+12ssw128444 0.0 100220
06:00+12ssw228729 0.0 100330
09:00+17w22620 0.0 1003724
12:00+22nw24430 0.0 10031649
15:00+25n46293 0.0 10022378
18:00+23n794197 0.0 10021352
21:00+18n51157100 0.0 1004522